#timestamp,LO_Frequency,Hit,StdDev 
1584295215.7,286046997.5,N
1584295235.6,286046992.2,N
1584295255.4,286046984.5,N
1584295275.3,286046986.5,N
1584295295.1,286046981.0,N
1584295315.8,286046974.0,Y
1584295335.7,286046970.0,P
1584295355.5,286046969.1,N
1584295375.4,286046958.5,P
1584295395.2,286046961.2,N
1584295415.0,286046964.4,N
1584295415.9,286046964.4,N
1584295435.8,286046959.2,Y
1584295455.6,286046988.1,P
1584295475.4,286046988.4,N
1584295495.3,286046982.0,N
1584295515.1,286046977.7,N
1584295535.9,286046977.3,Y
1584295555.7,286046993.2,P
1584295575.5,286046996.9,N
1584295595.4,286046996.3,N
1584295615.2,286046990.9,N
1584295635.1,286046996.0,N
1584295636.0,286046996.0,N
1584295655.8,286046995.6,N
1584295675.6,286046998.2,N
1584295695.5,286047000.8,N
1584295715.3,286047000.2,N
1584295735.1,286046996.8,N
1584295755.9,286047001.3,N
1584295775.7,286047001.9,N
1584295795.6,286046997.3,N
1584295815.4,286046996.0,N
1584295835.2,286046994.3,N
1584295855.1,286046983.8,Y
1584295856.0,286046983.8,P
1584295875.8,286046985.8,N
1584295895.7,286046984.8,N
1584295915.5,286046986.0,N
1584295935.3,286046980.5,Y
1584295955.2,286046987.5,P
1584295975.0,286046989.9,P
1584295975.9,286046989.9,P
1584295995.8,286046997.4,N
1584296015.6,286046995.1,N
1584296035.4,286046997.3,N
1584296055.3,286047001.2,N
1584296075.1,286046999.6,N
1584296095.8,286047000.4,N
1584296115.7,286047000.2,N
1584296135.5,286046998.8,N
1584296155.3,286047002.4,N
1584296175.2,286046997.6,N
1584296195.0,286046999.4,N
1584296195.9,286046999.4,N
1584296215.8,286046996.8,N
1584296235.6,286047000.1,N
1584296255.4,286047000.5,N
1584296275.3,286047011.9,N
1584296295.1,286046996.9,N
1584296315.9,286046993.8,N
1584296335.7,286046995.2,N
1584296355.5,286046998.8,N
1584296375.4,286046997.9,N
1584296395.2,286046993.5,N
1584296415.0,286047000.9,N
1584296415.9,286047000.9,N
1584296435.8,286047001.3,N
1584296455.6,286047002.1,N
1584296475.5,286046999.0,N
1584296495.3,286046991.8,N
1584296515.1,286046994.3,N
1584296535.9,286046993.9,N
1584296555.7,286046993.8,N
1584296575.6,286046996.4,N
1584296595.4,286046991.7,N
1584296615.2,286046996.3,N
1584296635.1,286046991.7,N
1584296636.0,286046991.7,N
1584296655.8,286046999.4,N
1584296675.7,286046996.5,N
1584296695.5,286047005.3,N
1584296715.3,286047000.0,N
1584296735.2,286046995.9,N
1584296755.0,286046993.7,N
1584296755.9,286046993.7,N
1584296775.7,286046994.4,N
1584296795.6,286046997.5,N
1584296815.4,286046996.7,N
1584296835.3,286046994.4,N
1584296855.1,286046992.2,N
1584296856.0,286046992.2,N
1584296875.8,286046996.9,N
1584296895.7,286046996.5,N
1584296915.5,286046995.1,N
1584296935.3,286046993.3,N
1584296955.2,286046995.7,N
1584296975.0,286046994.5,N
1584296975.9,286046994.5,N
1584296995.8,286046992.0,N
1584297015.6,286046992.4,N
1584297035.4,286046989.6,Y
1584297055.3,286046996.4,P
1584297075.1,286046990.2,P
1584297095.9,286046991.5,P
1584297115.7,286046988.8,Y
1584297135.5,286046997.1,P
1584297155.4,286046993.3,P
1584297175.2,286046995.7,N
1584297195.0,286046994.9,Y
1584297195.9,286046994.9,P
1584297215.8,286047007.3,P
1584297235.6,286047003.2,N
1584297255.5,286047003.6,N
1584297275.3,286047005.3,N
1584297295.1,286047002.9,N
1584297315.9,286047003.4,N
1584297335.7,286047006.0,N
1584297355.5,286047002.6,N
1584297375.4,286047013.8,Y
1584297395.2,286047018.2,P
1584297415.1,286047019.4,N
1584297416.0,286047019.4,N
1584297435.8,286047018.2,N
1584297455.6,286047020.6,Y
1584297475.5,286047007.2,P
1584297495.3,286047001.5,N
1584297515.2,286047001.6,N
1584297535.9,286046999.6,N
1584297555.7,286047000.0,N
1584297575.6,286047003.3,N
1584297595.4,286047002.7,N
1584297615.2,286047000.1,N
1584297635.1,286047004.1,N
1584297636.0,286047004.1,N
1584297655.8,286047007.6,N
1584297675.7,286047004.9,N
1584297695.5,286047003.4,N
1584297715.3,286047006.3,N
1584297735.2,286047005.9,N
1584297755.0,286047005.2,N
1584297755.9,286047005.2,N
1584297775.7,286047006.0,N
1584297795.6,286047001.8,N
1584297815.4,286047004.0,N
1584297835.3,286047002.1,N
1584297855.1,286047005.9,N
1584297875.8,286047003.7,N
1584297895.7,286047003.1,N
1584297915.5,286047001.8,N
1584297935.4,286047001.8,N
1584297955.2,286047006.6,N
1584297975.0,286047003.0,N
1584297975.9,286047003.0,N
1584297995.8,286047001.4,N
1584298015.6,286047003.6,N
1584298035.5,286047007.3,Y
1584298055.3,286046999.6,P
1584298075.1,286046993.9,P
1584298095.9,286047000.6,N
1584298115.7,286046998.5,N
1584298135.6,286047000.0,N
1584298155.4,286046995.6,N
1584298175.2,286046995.7,N
1584298195.1,286046995.5,N
1584298196.0,286046995.5,N
1584298215.8,286046993.3,N
1584298235.6,286046993.7,N
1584298255.5,286046992.1,N
1584298275.3,286046994.2,N
1584298295.2,286046994.9,N
1584298315.9,286046998.7,N
1584298335.7,286046997.5,N
1584298355.6,286046995.2,N
1584298375.4,286046992.1,N
1584298395.2,286046995.3,N
1584298415.1,286046995.8,N
1584298416.0,286046995.8,N
1584298435.8,286046997.1,N
1584298455.7,286046995.8,N
1584298475.5,286046997.4,N
1584298495.3,286046993.8,N
1584298515.2,286046992.3,N
1584298535.9,286046993.5,N
1584298555.7,286046996.4,N
1584298575.6,286046993.8,N
1584298595.4,286046994.1,N
1584298615.3,286046992.7,Y
1584298635.1,286047003.3,P
1584298636.0,286047003.3,N
1584298655.8,286047004.8,N
1584298675.7,286047005.5,N
1584298695.5,286047004.8,N
1584298715.3,286047004.8,N
1584298735.2,286047002.2,N
1584298755.0,286047002.2,N
1584298755.9,286047002.2,N
1584298775.8,286047006.7,N
1584298795.6,286047013.4,Y
